Change the Weather History Date:

Thursday, June 14, 2012

  Actual Average Record
Temperature  
Mean Temperature 52 °F 60 °F  
Max Temperature 69 °F 72 °F 92 °F (1949)
Min Temperature 34 °F 47 °F 31 °F (1979)
Degree Days  
Heating Degree Days 14    
Cooling Degree Days 0 1  
Month to date cooling degree days 13  
Year to date cooling degree days 16  
Since 1 June cooling degree days 13  
Growing Degree Days 2 (Base 50)    
Moisture  
Dew Point 38 °F    
Average Humidity 75    
Maximum Humidity 100    
Minimum Humidity 32    
Precipitation  
Precipitation 0.00 in 0.13 in 0.77 in (1954)
Month to date precipitation 1.83  
Year to date precipitation 14.18  
Sea Level Pressure  
Sea Level Pressure 30.26 in    
Wind  
Wind Speed 3 mph (NE)    
Max Wind Speed 16 mph    
Max Gust Speed 25 mph    
Visibility 8 miles    
Events Fog    
T = Trace of Precipitation, MM = Missing Value Source: NWS Daily Summary

Daily Weather History Graph

Daily Weather History Graph

Search for Another Location

Airport or City:

Trip Planner

Search our weather history database for the weather conditions in past years. The results will help you decide how hot, cold, wet, or windy it might be!

Date:

Astronomy

Jun. 14, 2012 Rise Set
Actual Time 5:11 AM EDT 8:42 PM EDT
Civil Twilight 4:35 AM EDT 9:19 PM EDT
Nautical Twilight 3:46 AM EDT 10:07 PM EDT
Astronomical Twilight 2:44 AM EDT 11:10 PM EDT
Moon 2:00 AM EDT (6/14) 4:17 PM EDT (6/14)
Length of Visible Light 16h 44m
Length of Day
15h 30m
Waning Crescent, 21% of the Moon is Illuminated
Jun 14
Waning Crescent
Jun 19
New
Jun 26
First Quarter
Jul 3
Full
Jul 10
Last Quarter

Hourly Weather History & Observations

Time (EDT) Temp. Windchill Dew Point Humidity Pressure Visibility Wind Dir Wind Speed Gust Speed Precip Events Conditions
12:05 AM 41.0 °F - 39.2 °F 93% 30.19 in 10.0 mi Calm Calm - N/A   Scattered Clouds
12:16 AM 41.0 °F - 39.2 °F 93% 30.20 in 7.0 mi Calm Calm - N/A   Mostly Cloudy
12:23 AM 41.0 °F - 39.2 °F 93% 30.19 in 1.5 mi Calm Calm - N/A   Mostly Cloudy
12:34 AM 39.2 °F - 39.2 °F 100% 30.20 in 4.0 mi Calm Calm - N/A   Mostly Cloudy
12:51 AM 39.9 °F - 39.0 °F 97% 30.22 in 10.0 mi Calm Calm - N/A   Scattered Clouds
1:19 AM 39.2 °F - 37.4 °F 93% 30.20 in 2.0 mi Calm Calm - N/A   Partly Cloudy
1:27 AM 39.2 °F - 37.4 °F 93% 30.21 in 10.0 mi Calm Calm - N/A   Mostly Cloudy
1:41 AM 39.2 °F - 37.4 °F 93% 30.21 in 1.8 mi Calm Calm - N/A   Scattered Clouds
1:43 AM 37.4 °F - 37.4 °F 100% 30.21 in 0.8 mi Calm Calm - N/A   Mist
1:51 AM 37.9 °F - 37.9 °F 100% 30.24 in 0.5 mi Calm Calm - N/A Fog Fog
1:56 AM 37.4 °F - 37.4 °F 100% 30.21 in 1.2 mi Calm Calm - N/A   Scattered Clouds
1:59 AM 37.4 °F - 37.4 °F 100% 30.21 in 0.8 mi Calm Calm - N/A   Mist
2:41 AM 37.4 °F - 35.6 °F 93% 30.22 in 2.5 mi Calm Calm - N/A   Mostly Cloudy
2:48 AM 37.4 °F - 35.6 °F 93% 30.22 in 9.0 mi Calm Calm - N/A   Scattered Clouds
2:51 AM 36.0 °F 33.3 °F 36.0 °F 100% 30.24 in 9.0 mi NE 3.5 mph - N/A   Partly Cloudy
3:23 AM 35.6 °F - 35.6 °F 100% 30.21 in 6.0 mi Calm Calm - N/A   Mostly Cloudy
3:37 AM 35.6 °F - 35.6 °F 100% 30.22 in 3.0 mi Calm Calm - N/A   Overcast
3:51 AM 35.1 °F - 34.0 °F 96% 30.24 in 10.0 mi Calm Calm - N/A   Scattered Clouds
4:51 AM 34.0 °F - 33.1 °F 96% 30.26 in 10.0 mi Calm Calm - N/A   Clear
5:51 AM 35.1 °F - 34.0 °F 96% 30.29 in 10.0 mi Calm Calm - N/A   Clear
6:51 AM 44.1 °F - 42.1 °F 93% 30.30 in 10.0 mi Calm Calm - N/A   Clear
7:51 AM 53.6 °F - 44.6 °F 72% 30.30 in 10.0 mi NE 3.5 mph - N/A   Clear
8:51 AM 59.0 °F - 44.1 °F 58% 30.31 in 10.0 mi NE 12.7 mph 18.4 mph N/A   Clear
9:51 AM 61.0 °F - 37.9 °F 42% 30.32 in 10.0 mi ENE 15.0 mph 23.0 mph N/A   Clear
10:51 AM 64.0 °F - 36.0 °F 35% 30.32 in 10.0 mi NE 16.1 mph 25.3 mph N/A   Clear
11:00 AM 64.4 °F - 35.6 °F 34% 30.31 in 10.0 mi ENE 15.0 mph 24.2 mph N/A   Clear
11:51 AM 64.9 °F - 34.0 °F 32% 30.32 in 10.0 mi NE 15.0 mph 21.9 mph N/A   Clear
12:51 PM 66.0 °F - 35.1 °F 32% 30.32 in 10.0 mi NE 15.0 mph 23.0 mph N/A   Clear
1:51 PM 66.9 °F - 37.9 °F 34% 30.32 in 10.0 mi East 8.1 mph 17.3 mph N/A   Clear
2:51 PM 69.1 °F - 41.0 °F 36% 30.30 in 10.0 mi Variable 5.8 mph 19.6 mph N/A   Clear
3:51 PM 69.1 °F - 39.9 °F 35% 30.30 in 10.0 mi NE 13.8 mph 20.7 mph N/A   Clear
4:51 PM 69.1 °F - 37.9 °F 32% 30.29 in 10.0 mi ENE 10.4 mph - N/A   Clear
5:51 PM 68.0 °F - 37.9 °F 33% 30.31 in 10.0 mi NE 11.5 mph - N/A   Clear
6:51 PM 66.9 °F - 39.9 °F 37% 30.30 in 10.0 mi NE 9.2 mph - N/A   Clear
7:51 PM 64.9 °F - 42.1 °F 43% 30.31 in 10.0 mi ENE 9.2 mph - N/A   Clear
8:51 PM 55.9 °F - 44.1 °F 64% 30.32 in 10.0 mi NNE 3.5 mph - N/A   Clear
9:51 PM 48.2 °F - 44.6 °F 87% 30.31 in 10.0 mi Calm Calm - N/A   Clear
10:51 PM 46.4 °F - 42.8 °F 87% 30.31 in 10.0 mi Calm Calm - N/A   Clear
11:51 PM 43.0 °F - 41.0 °F 93% 30.32 in 10.0 mi Calm Calm - N/A   Clear